Back to catalog

FENGYUN 1C DEB

AlivePO
NORAD 32326·DEBRIS·🇨🇳 China

Launched May 10, 1999 from Taiyuan Satellite Launch Center

Loading…

Next Passes (next 24 hours)

TLE

AgingSource: Space-Track

Epoch: Sep 5, 2026, 04:32 UTC

1 32326U 99025CXT 26248.18896348  .00000313  00000-0  23567-3 0  9993
2 32326  98.4853 151.8874 0385283 147.3430 215.2188 13.69665260668292

Track FENGYUN 1C DEB in real time with AllMySat

Download on the App Store